Regional Weather Roundup
Issued by NWS Little Rock, AR

Home | Current Version | Previous Version | Graphics & Text | Print | Product List | Glossary On
Versions: 1 2 3 4 5 6 7 8 9 10 11 12 13 14 15 16 17 18 19 20 21 22 23 24 25 26 27 28 29 30 31 32 33 34 35 36 37 38 39 40 41 42 43 44 45 46 47 48 49 50
000
ASUS44 KLZK 011405
RWRLZK

WEATHER ROUNDUP FOR ARKANSAS
NATIONAL WEATHER SERVICE LITTLE ROCK AR
800 AM CST SUN MAR 01 2015

NOTE: "FAIR" INDICATES FEW OR NO CLOUDS BELOW 12,000 FEET WITH NO
SIGNIFICANT WEATHER AND/OR OBSTRUCTIONS TO VISIBILITY.

ARZ001-003-010-029-011500-
NORTHWEST ARKANSAS

CITY           SKY/WX    TMP DP  RH WIND       PRES   REMARKS
FAYETTEVILLE   CLOUDY    30  30 100 NW5       30.34R FOG     WCI  25
FORT SMITH     FOG       33  31  92 CALM      30.37S VSB 1
HARRISON       CLOUDY    30  30 100 NW5       30.33R FOG     WCI  25
BENTONVILLE    CLOUDY    28  27  93 CALM      30.35R
ROGERS         CLOUDY    28  28 100 NW6       30.35R FOG     WCI  22
SILOAM SPGS    CLOUDY    30  25  80 CALM      30.36R
HIGHFILL       CLOUDY    30  28  92 N5        30.34R FOG     WCI  25
SPRINGDALE     FRZ DRZL  30  30 100 CALM      30.35R VSB 1
$$

ARZ004-005-016-011500-
NORTH CENTRAL ARKANSAS

CITY           SKY/WX    TMP DP  RH WIND       PRES   REMARKS
BATESVILLE     CLOUDY    30  28  93 SE3       30.37S
FLIPPIN        CLOUDY    30  27  86 CALM      30.35R
MTN HOME       CLOUDY    31  30  96 CALM      30.34R FOG
$$

ARZ040-041-011500-
WEST CENTRAL ARKANSAS

CITY           SKY/WX    TMP DP  RH WIND       PRES   REMARKS
MENA           CLOUDY    36  34  93 CALM      30.32R
MOUNT IDA      MIX PCPN  34  32  92 CALM      30.31S FOG
$$

ARZ009-017-025-026-028-011500-
NORTHEAST ARKANSAS

CITY           SKY/WX    TMP DP  RH WIND       PRES   REMARKS
CORNING        FAIR      32  32 100 N6        30.38S WCI  26
JONESBORO      CLOUDY    32  30  92 E7        30.37F WCI  26
NEWPORT        CLOUDY    32  30  92 SE5       30.40R WCI  27
WALNUT RIDGE   CLOUDY    30  27  86 CALM      30.37S
BLYTHEVILLE    LGT RAIN  33  32  96 NE3       30.39S FOG
$$

ARZ022-023-033-042-044-011500-
CENTRAL ARKANSAS

CITY           SKY/WX    TMP DP  RH WIND       PRES   REMARKS
LITTLE ROCK    CLOUDY    34  30  85 NE5       30.38S FOG     WCI  30
N LITTLE ROCK  CLOUDY    32  32 100 E6        30.38R WCI  27
JACKSONVILLE   PTSUNNY   33  31  90 E6        30.36F WCI  28
SEARCY         LGT RAIN  33  30  88 NE3       30.40R
HOT SPRINGS    LGT RAIN  34  32  92 E5        30.34F FOG     WCI  30
RUSSELLVILLE   CLOUDY    34  32  92 CALM      30.35S FOG
CLINTON        CLOUDY    34  32  93 CALM      30.38S FOG
$$

ARZ036-011500-
EAST ARKANSAS

CITY           SKY/WX    TMP DP  RH WIND       PRES   REMARKS
WEST MEMPHIS   LGT RAIN  33  32  96 N6        30.38R FOG     WCI  28
$$

ARZ050-053-066-070-073-011500-
SOUTHWEST ARKANSAS

CITY           SKY/WX    TMP DP  RH WIND       PRES   REMARKS
ARKADELPHIA    LGT RAIN  34  34 100 NE6       30.37S FOG     WCI  29
CAMDEN         LGT RAIN  32  32 100 MISG      30.36R
TEXARKANA      RAIN      35  34  96 E8        30.34R FOG     WCI  29
EL DORADO      LGT RAIN  34  32  92 NE5       30.34R FOG     WCI  30
DE QUEEN       LGT RAIN  38  36  92 SE3       30.33R FOG
$$

ARZ056-057-069-011500-
SOUTHEAST ARKANSAS

CITY           SKY/WX    TMP DP  RH WIND       PRES   REMARKS
PINE BLUFF     FRZ RAIN  32  29  88 N8        30.37F FOG     WCI  25
STUTTGART      CLOUDY    32  28  86 NE7       30.39R WCI  26
MONTICELLO     LGT RAIN  34  31  88 NE6       30.35R FOG     WCI  29

$$





USA.gov is the U.S. government's official web portal to all federal, state and local government web resources and services.